Temp
14 16 17 19 18 17 16 16 17 18 18 15 17 17 18 18 17 16 14 11 9 7 6 5 5 6 6 9 9 10 10 11 11 11 11 10 10 9 8 11 11 11 12 12
14 16 18 16 15 14 15 16 16 17 16 15 17 17 18 15 14 12 12 11 9 8 7 6 5 5 6 7 8 9 9 9 10 10 10 10 9 9 9 9 9 10 10 11
16 17 15 14 14 14 16 15 16 15 16 16 16 17 16 13 11 10 9 9 8 8 8 7 5 4 6 7 7 7 7 7 8 8 9 9 7 6 6 9 9 10 10 10
15 16 14 14 15 15 15 16 15 14 14 16 15 16 17 15 14 11 9 9 8 7 7 6 5 4 3 5 5 5 6 6 6 7 7 7 5 4 4 4 7 8 9 9
15 14 13 14 15 15 14 14 14 14 14 15 15 14 18 15 14 13 11 9 8 8 7 6 4 3 2 2 3 5 5 5 5 5 4 4 4 2 2 1 3 5 6 6
15 13 14 15 15 14 14 14 14 14 14 14 16 15 18 15 16 16 12 9 8 7 6 5 3 3 2 2 3 3 3 3 4 4 2 1 0 1 1 0 0 0 3 2
14 14 15 14 14 14 14 13 14 14 14 15 14 14 17 16 15 15 13 10 8 7 6 4 3 3 1 2 2 2 3 2 3 3 3 -0 1 -2 -2 -2 -3 -3 -3 -1
14 14 14 14 14 15 14 14 13 12 14 15 13 14 16 15 14 12 12 10 9 7 4 4 2 2 1 1 1 2 2 1 2 2 1 0 -1 -3 -4 -4 -5 -5 -5 -4
13 14 14 14 14 15 13 13 15 13 14 13 15 16 13 12 11 10 10 9 8 6 3 3 2 1 0 -0 1 1 2 1 1 1 0 -0 -1 -3 -3 -4 -5 -5 -5 -5
13 13 15 15 13 13 13 15 12 12 11 12 15 15 15 12 12 10 10 9 9 5 2 2 1 -0 -0 -1 -1 1 1 1 0 0 -1 -1 -2 -3 -4 -5 -4 -4 -4 -5
13 12 13 13 13 14 13 12 12 13 12 11 12 15 15 15 15 13 12 10 9 7 3 1 1 -1 -1 -2 -2 0 0 -0 -0 -0 -0 -1 -1 -3 -3 -3 -4 -4 -5 -6
12 11 11 13 14 13 13 13 13 10 11 10 11 13 15 14 14 13 13 10 9 5 2 0 -0 -1 -2 -3 -3 -3 -2 -0 -0 -1 -1 -1 -2 -2 -4 -4 -4 -5 -6 -7
11 11 10 12 13 12 11 12 11 8 6 8 9 12 13 12 12 11 11 9 7 3 1 -1 -1 -2 -3 -3 -3 -3 -2 -1 -1 -1 -2 -2 -3 -3 -4 -4 -4 -4 -6 -8
8 10 10 10 12 12 10 11 12 10 8 10 12 13 15 13 12 11 10 7 5 2 0 -0 -1 -2 -3 -4 -3 -3 -2 -1 -1 -2 -2 -2 -3 -3 -4 -4 -5 -5 -5 -6
9 8 9 10 11 11 11 11 11 11 11 10 11 12 14 14 13 11 9 7 4 2 0 -1 -2 -3 -4 -4 -4 -3 -2 -2 -2 -2 -2 -2 -3 -3 -4 -4 -4 -5 -6 -6
8 7 8 9 10 10 10 11 11 11 11 12 12 12 14 12 9 8 7 5 3 1 -1 -3 -4 -4 -5 -5 -4 -3 -2 -2 -3 -3 -3 -3 -3 -3 -4 -4 -4 -5 -7 -6
8 7 7 6 9 8 8 10 11 12 13 12 10 12 13 11 8 7 5 3 2 -1 -3 -4 -5 -5 -6 -4 -4 -4 -3 -4 -3 -3 -3 -3 -3 -4 -4 -4 -4 -5 -6 -6
7 7 6 7 8 6 11 11 10 10 12 12 12 12 10 8 5 3 3 2 -0 -2 -4 -5 -6 -7 -5 -5 -5 -4 -4 -4 -4 -4 -4 -4 -4 -4 -4 -5 -5 -5 -6 -7
8 7 6 5 7 9 10 10 6 6 10 11 9 10 5 2 1 -1 -1 -1 -3 -5 -5 -5 -5 -5 -6 -6 -5 -5 -5 -5 -5 -4 -5 -4 -5 -4 -5 -5 -5 -6 -8 -8
8 8 6 6 6 6 9 8 7 7 7 10 8 7 3 2 5 4 -3 -4 -5 -5 -5 -5 -6 -6 -6 -6 -6 -6 -5 -5 -5 -5 -5 -5 -5 -5 -5 -6 -7 -8 -9 -9
6 4 4 6 5 8 11 7 6 6 8 5 6 4 2 3 1 -2 -5 -5 -5 -5 -6 -7 -7 -7 -6 -6 -7 -6 -6 -5 -6 -6 -6 -6 -6 -6 -6 -7 -7 -8 -9 -10
8 6 6 5 5 6 6 4 6 5 3 3 3 2 1 -2 -3 -5 -6 -6 -7 -7 -8 -8 -7 -7 -7 -7 -7 -6 -6 -6 -6 -7 -6 -6 -6 -7 -8 -10 -10 -10 -11 -12
5 7 7 7 8 4 4 2 2 2 3 2 2 0 -0 -3 -5 -6 -7 -7 -8 -8 -8 -8 -8 -8 -8 -8 -7 -7 -7 -7 -7 -7 -7 -7 -7 -8 -11 -12 -12 -11 -12 -12
7 7 6 5 6 4 3 0 0 1 1 -0 -1 -1 -3 -4 -6 -6 -7 -7 -8 -8 -8 -8 -8 -9 -9 -9 -8 -8 -7 -7 -7 -7 -8 -8 -8 -9 -12 -12 -12 -13 -13 -12
7 5 6 5 2 -1 -1 1 0 -1 -2 -1 -1 -2 -3 -4 -6 -7 -7 -7 -7 -8 -8 -8 -8 -8 -9 -9 -9 -8 -8 -9 -8 -8 -9 -10 -10 -12 -13 -12 -13 -13 -14 -14
5 5 4 5 5 4 5 1 -1 -2 -2 -2 -2 -4 -5 -5 -7 -7 -7 -7 -8 -8 -8 -8 -8 -9 -9 -10 -8 -8 -9 -9 -9 -9 -9 -10 -11 -13 -13 -13 -14 -13 -13 -14
Height
1517 1514 1508 1498 1502 1504 1509 1509 1507 1504 1505 1511 1505 1500 1498 1500 1500 1503 1506 1510 1512 1512 1512 1512 1510 1508 1507 1506 1504 1501 1498 1496 1495 1494 1493 1493 1491 1489 1489 1487 1486 1485 1484 1484
1515 1507 1503 1508 1510 1510 1508 1508 1504 1500 1506 1509 1499 1495 1493 1500 1501 1506 1506 1508 1510 1511 1512 1511 1510 1509 1507 1505 1503 1501 1499 1497 1495 1494 1492 1490 1489 1489 1488 1486 1483 1482 1481 1480
1503 1501 1507 1510 1508 1508 1504 1507 1502 1504 1503 1502 1496 1486 1488 1501 1504 1506 1507 1507 1509 1510 1510 1511 1510 1508 1505 1503 1501 1500 1499 1497 1495 1493 1492 1490 1488 1488 1486 1484 1482 1480 1478 1476
1503 1504 1506 1505 1507 1505 1505 1501 1505 1506 1505 1496 1500 1488 1478 1488 1495 1501 1504 1506 1508 1509 1510 1510 1509 1507 1505 1503 1502 1500 1498 1496 1494 1493 1491 1488 1486 1485 1483 1481 1478 1476 1473 1472
1498 1503 1504 1505 1503 1506 1505 1506 1506 1505 1502 1497 1493 1499 1465 1482 1488 1493 1500 1503 1505 1507 1508 1509 1508 1507 1505 1502 1501 1499 1498 1496 1493 1491 1489 1486 1484 1482 1479 1477 1474 1472 1469 1467
1498 1504 1503 1498 1503 1506 1507 1506 1501 1500 1497 1493 1477 1486 1461 1478 1479 1482 1494 1499 1502 1504 1506 1507 1506 1506 1504 1502 1501 1499 1496 1494 1491 1489 1486 1484 1480 1478 1474 1472 1469 1467 1465 1462
1497 1498 1499 1501 1500 1503 1505 1505 1497 1491 1488 1482 1485 1485 1468 1471 1479 1482 1489 1494 1499 1502 1504 1505 1505 1504 1503 1501 1500 1498 1496 1494 1491 1487 1486 1482 1478 1475 1471 1468 1466 1463 1460 1456
1490 1493 1497 1496 1493 1491 1497 1497 1496 1498 1482 1474 1484 1478 1462 1473 1477 1483 1487 1491 1496 1499 1501 1503 1503 1503 1502 1500 1498 1497 1495 1492 1489 1487 1484 1479 1475 1473 1469 1465 1463 1460 1455 1451
1493 1494 1493 1494 1493 1492 1496 1500 1489 1491 1484 1487 1472 1460 1470 1476 1481 1484 1486 1489 1492 1496 1499 1501 1501 1500 1500 1499 1496 1495 1493 1491 1488 1487 1484 1478 1474 1471 1466 1463 1460 1456 1452 1448
1493 1493 1483 1487 1494 1492 1491 1488 1495 1493 1495 1481 1459 1456 1460 1470 1473 1480 1483 1485 1488 1493 1496 1497 1498 1498 1497 1497 1496 1495 1493 1490 1488 1486 1483 1478 1474 1470 1465 1461 1457 1453 1449 1446
1494 1491 1486 1490 1487 1482 1486 1489 1490 1486 1484 1483 1472 1453 1453 1457 1461 1469 1475 1479 1483 1489 1494 1493 1496 1496 1496 1496 1495 1494 1491 1489 1487 1486 1483 1479 1474 1471 1466 1461 1456 1452 1448 1444
1496 1493 1488 1481 1479 1485 1484 1481 1479 1488 1480 1485 1476 1456 1454 1459 1462 1464 1467 1474 1479 1486 1491 1490 1492 1496 1496 1495 1495 1492 1489 1488 1486 1485 1483 1480 1476 1472 1467 1461 1457 1453 1448 1445
1494 1490 1489 1479 1477 1483 1482 1478 1481 1492 1498 1486 1481 1458 1457 1463 1463 1465 1467 1471 1477 1483 1488 1488 1491 1494 1494 1493 1492 1491 1489 1487 1485 1484 1483 1480 1477 1472 1468 1463 1459 1455 1450 1446
1499 1491 1488 1479 1470 1473 1479 1476 1475 1481 1482 1468 1459 1453 1446 1455 1460 1465 1466 1470 1476 1481 1485 1488 1487 1491 1491 1490 1490 1489 1488 1486 1485 1484 1482 1479 1476 1472 1469 1465 1461 1457 1453 1448
1496 1490 1485 1480 1478 1478 1474 1471 1469 1467 1463 1468 1451 1453 1442 1447 1450 1457 1466 1469 1473 1479 1483 1485 1484 1487 1489 1489 1489 1488 1487 1485 1485 1484 1482 1479 1476 1474 1470 1465 1462 1459 1455 1450
1493 1488 1484 1478 1475 1473 1470 1463 1459 1457 1454 1452 1447 1441 1442 1447 1453 1458 1463 1469 1472 1476 1481 1482 1482 1485 1487 1488 1487 1487 1486 1485 1484 1483 1482 1480 1477 1474 1470 1467 1464 1461 1457 1452
1487 1488 1487 1477 1472 1474 1470 1448 1448 1442 1440 1443 1445 1435 1438 1444 1453 1457 1463 1467 1471 1476 1478 1480 1481 1483 1485 1486 1486 1486 1486 1485 1485 1483 1482 1480 1478 1475 1472 1468 1466 1463 1459 1455
1483 1482 1484 1474 1470 1469 1438 1443 1446 1441 1436 1436 1435 1435 1444 1448 1454 1458 1461 1465 1470 1474 1476 1478 1479 1481 1483 1485 1486 1486 1486 1486 1485 1484 1482 1481 1479 1476 1474 1471 1468 1465 1461 1456
1473 1474 1477 1475 1458 1446 1436 1439 1448 1448 1430 1430 1435 1436 1447 1453 1456 1461 1463 1465 1468 1471 1473 1475 1478 1480 1482 1484 1485 1486 1486 1486 1485 1484 1483 1482 1480 1478 1476 1473 1470 1466 1462 1458
1458 1464 1471 1463 1459 1451 1427 1438 1442 1444 1433 1428 1433 1437 1448 1451 1447 1450 1461 1463 1466 1469 1471 1474 1477 1480 1481 1483 1485 1486 1486 1486 1485 1485 1484 1482 1481 1480 1477 1475 1471 1468 1464 1461
1457 1465 1461 1453 1452 1432 1425 1437 1441 1440 1428 1433 1435 1439 1445 1447 1449 1452 1457 1462 1465 1467 1471 1474 1477 1479 1481 1483 1485 1486 1486 1486 1486 1486 1485 1483 1482 1480 1478 1476 1473 1470 1468 1465
1440 1447 1443 1445 1444 1433 1431 1439 1435 1431 1434 1437 1438 1441 1444 1447 1450 1453 1457 1461 1464 1467 1472 1475 1477 1479 1481 1482 1484 1485 1486 1486 1487 1487 1486 1484 1482 1481 1480 1478 1475 1473 1471 1468
1444 1435 1433 1434 1421 1431 1432 1431 1432 1432 1434 1437 1439 1442 1444 1446 1450 1453 1457 1461 1466 1469 1472 1475 1477 1478 1481 1483 1484 1485 1486 1487 1487 1488 1486 1485 1484 1483 1482 1480 1478 1477 1475 1471
1430 1433 1431 1432 1425 1430 1431 1433 1434 1434 1436 1437 1440 1441 1443 1445 1450 1453 1458 1462 1466 1469 1471 1474 1477 1479 1482 1483 1484 1486 1486 1487 1488 1488 1487 1486 1486 1484 1484 1484 1481 1479 1477 1474
1427 1431 1425 1424 1430 1431 1432 1431 1433 1433 1434 1435 1438 1440 1442 1445 1449 1453 1458 1462 1466 1468 1471 1475 1478 1481 1482 1483 1484 1486 1487 1488 1489 1489 1488 1488 1487 1487 1485 1483 1482 1482 1478 1475
1426 1423 1425 1415 1421 1421 1420 1424 1429 1430 1432 1435 1437 1439 1442 1445 1448 1454 1458 1462 1465 1468 1471 1475 1478 1480 1482 1483 1484 1486 1487 1488 1489 1489 1489 1489 1489 1488 1487 1487 1484 1481 1478 1476
Wind_Speed
9 8 10 8 8 4 5 9 13 11 9 11 13 13 13 13 14 9 3 3 5 8 9 9 11 11 11 11 10 11 11 12 11 10 7 6 9 7 7 12 14 15 16 18
6 12 9 4 4 7 10 12 14 11 5 8 14 16 17 6 3 2 2 5 6 7 7 8 9 11 11 12 12 12 12 13 14 13 12 11 11 13 14 13 14 16 17 18
13 3 1 8 8 11 12 12 13 11 11 15 14 20 8 5 5 3 3 4 4 5 6 6 7 8 6 7 9 11 13 13 13 13 14 13 12 11 10 15 16 17 18 19
10 13 8 8 11 10 12 7 11 11 8 7 2 7 8 10 7 6 6 6 6 6 5 4 4 7 10 12 14 15 16 16 16 18 17 15 13 13 15 16 18 20 20 20
1 5 7 12 12 4 7 2 5 8 11 13 13 7 4 8 10 10 10 9 9 7 5 3 4 6 9 11 13 15 17 20 19 18 19 18 18 17 16 17 19 19 21 21
9 1 5 6 4 8 1 7 9 8 9 10 12 11 5 9 11 10 11 12 11 10 6 3 4 6 8 11 12 14 16 18 21 22 21 20 19 20 20 19 21 19 19 19
6 13 8 9 9 6 11 6 5 6 6 8 4 7 15 8 6 5 11 14 14 11 7 3 2 4 6 10 12 13 15 16 18 19 19 17 19 18 18 19 18 20 20 19
5 6 10 9 12 4 12 11 6 7 7 9 9 7 2 0 6 9 10 12 14 12 7 3 2 4 6 9 11 12 13 15 17 18 19 18 19 17 16 17 18 17 18 19
4 7 4 7 3 9 7 8 9 15 16 12 13 17 11 8 8 10 13 14 16 13 9 5 3 3 6 8 11 13 15 16 18 18 18 18 18 18 18 17 17 17 18 18
1 9 8 3 5 7 9 3 7 7 9 17 13 13 11 11 12 12 15 19 17 14 11 6 2 2 4 6 9 11 12 13 16 19 20 20 19 18 18 18 18 19 19 19
1 4 5 4 9 16 7 11 9 11 11 13 15 13 7 2 4 12 15 19 19 17 12 8 4 2 3 5 6 8 11 13 15 16 18 19 19 19 20 20 20 20 20 19
4 5 11 15 8 5 9 15 16 12 13 7 12 17 3 3 5 7 10 16 16 17 13 9 6 3 2 3 5 8 10 12 13 14 15 16 17 18 19 21 21 21 21 19
1 7 12 18 12 13 10 13 12 6 3 13 13 15 4 3 4 7 11 15 17 17 14 11 8 5 3 4 5 7 8 10 11 12 13 14 15 16 18 19 20 21 21 20
2 10 13 14 14 12 11 12 14 17 11 17 20 23 19 10 10 9 13 16 17 17 14 11 10 6 4 4 5 6 6 8 9 10 11 13 15 15 14 15 16 19 21 21
5 13 15 18 19 18 20 21 21 22 22 20 24 20 23 17 10 11 14 16 18 15 13 11 10 7 5 5 4 5 6 7 8 9 10 13 14 15 15 15 14 15 17 20
4 11 10 18 16 18 21 24 25 24 26 26 27 28 21 8 2 7 14 15 15 15 13 11 9 9 6 5 5 4 4 5 7 8 10 11 11 12 14 15 16 17 18 21
13 10 9 19 14 10 13 26 25 23 24 22 20 25 16 6 7 9 12 14 15 16 14 12 10 9 8 7 7 6 6 7 7 8 10 11 11 11 12 14 15 16 17 19
19 17 11 15 15 14 16 5 9 13 18 19 23 20 6 3 4 5 8 14 16 16 14 12 11 10 9 9 8 8 7 7 7 8 10 11 12 12 12 12 14 16 18 21
21 18 11 12 15 19 28 11 5 7 20 11 16 8 7 8 10 5 7 12 15 17 14 12 12 12 11 10 8 7 7 8 8 9 10 11 12 11 11 12 14 16 18 21
17 20 14 15 17 20 18 3 6 4 14 10 10 10 12 14 6 4 15 15 15 13 10 14 15 13 10 8 7 4 6 8 11 11 11 10 12 12 13 14 16 17 19 21
5 6 14 16 17 16 11 11 11 8 4 4 7 13 17 8 4 15 20 15 12 12 16 16 14 12 10 8 7 6 8 10 11 11 11 11 11 12 14 15 16 17 18 19
16 10 10 10 12 18 13 10 8 2 5 6 8 12 13 8 12 16 17 16 17 18 17 14 13 12 10 9 6 8 10 11 10 10 10 11 12 13 13 13 15 17 17 17
11 13 10 9 6 2 19 3 5 6 8 8 10 11 13 14 16 18 19 18 18 18 16 14 12 12 11 8 7 9 10 10 8 8 9 11 12 12 14 15 16 15 17 18
9 13 7 4 5 2 10 4 5 4 7 9 8 12 15 17 18 19 19 20 19 17 15 14 13 11 11 10 9 9 9 9 7 7 9 11 12 13 13 12 15 17 18 17
9 5 10 11 5 1 10 17 12 10 9 10 10 12 15 18 19 21 22 20 18 16 14 13 12 11 11 10 10 10 9 8 6 7 8 9 10 9 11 15 14 14 18 19
10 10 7 8 3 9 6 21 16 13 12 11 12 13 13 17 21 22 21 19 17 16 15 14 13 12 11 11 11 10 9 7 6 7 8 8 8 7 8 8 9 14 16 16
Wind_Direction
200 222 231 251 238 298 263 264 275 276 269 292 270 278 281 274 277 280 223 154 119 106 96 80 68 63 50 39 28 19 12 8 358 356 347 308 305 295 296 276 273 276 277 277
200 241 260 280 236 235 247 263 269 280 275 267 282 283 280 308 271 257 185 151 143 127 104 83 70 59 51 44 36 29 25 16 7 358 348 339 331 321 311 299 291 284 281 277
255 3 23 202 221 239 244 266 274 278 295 277 279 273 173 172 171 148 138 143 142 137 119 97 75 54 34 26 31 23 17 14 7 1 350 345 341 333 315 307 299 293 289 286
260 265 230 223 246 255 270 269 264 269 273 276 80 288 206 184 204 203 187 182 169 159 139 108 61 31 13 1 352 354 351 347 346 347 343 340 342 337 326 323 314 308 296 289
167 196 211 229 248 239 277 267 254 268 269 281 263 256 160 185 220 207 200 193 184 172 153 119 52 30 23 9 4 356 355 349 339 340 338 336 333 328 324 323 317 313 307 302
265 259 233 239 222 230 195 233 239 256 263 259 256 219 248 181 220 197 197 198 187 178 171 136 65 46 32 16 11 8 4 354 349 344 345 340 335 330 323 320 319 314 310 306
214 233 220 215 222 202 219 250 269 246 207 257 94 254 252 185 205 217 197 198 190 185 182 158 88 53 30 15 12 7 3 357 352 347 342 341 336 333 333 328 327 324 317 309
256 205 196 174 219 268 212 231 253 265 263 276 168 253 260 253 191 213 202 194 188 187 180 161 104 58 29 16 8 6 6 5 360 353 350 346 345 341 340 335 331 328 324 321
224 225 156 203 190 210 149 222 270 275 271 267 260 259 164 173 193 196 201 196 196 191 181 172 121 56 25 17 8 10 11 8 7 5 2 360 356 351 348 344 340 334 331 328
262 269 255 203 205 211 251 359 239 228 265 257 257 258 265 194 217 210 212 209 203 196 186 174 138 62 28 14 9 8 10 17 18 16 13 12 9 6 3 357 351 348 344 339
298 258 221 206 220 250 200 232 241 276 256 266 273 270 47 300 214 205 215 211 204 195 194 172 159 83 43 28 16 10 18 22 18 17 18 17 19 17 16 14 8 1 354 349
312 285 269 257 271 252 258 266 277 252 252 256 279 273 125 236 246 232 205 196 198 188 189 175 172 156 87 48 26 20 17 11 10 12 13 14 17 22 23 23 17 12 7 0
348 244 271 263 221 228 243 245 242 231 288 260 264 268 130 179 189 189 182 181 178 178 179 166 154 154 116 66 37 29 16 11 9 8 10 11 11 16 22 24 22 22 20 13
248 253 250 266 284 322 270 264 254 240 251 261 257 273 264 221 232 212 188 180 181 181 177 172 152 147 115 74 47 34 28 26 19 12 12 16 17 14 16 21 24 27 27 26
255 265 269 270 271 275 274 276 271 265 254 253 271 271 277 281 285 235 220 184 176 176 176 171 149 134 116 87 66 53 46 40 37 33 31 32 28 24 26 30 30 29 28 32
230 268 278 271 268 265 268 267 263 259 260 264 265 268 276 302 203 187 190 192 187 181 175 162 143 135 125 108 89 75 67 53 41 36 35 33 26 23 26 32 38 39 37 41
267 269 272 272 285 291 272 256 261 261 257 251 256 261 299 249 223 210 199 195 187 176 171 158 148 143 141 128 109 94 82 74 63 52 48 42 36 31 31 33 38 44 42 42
253 251 260 265 272 250 265 305 289 278 265 255 255 270 267 280 132 162 183 182 175 170 165 158 153 146 145 131 111 90 83 79 72 64 58 52 47 42 40 38 42 46 46 44
232 238 245 250 258 267 277 255 206 215 267 254 247 246 172 150 140 139 159 162 165 171 170 165 160 154 148 139 121 95 84 81 80 75 67 62 59 57 58 54 52 51 47 48
232 227 231 239 246 260 271 141 187 187 267 213 220 184 175 166 206 143 165 158 165 170 173 160 154 150 149 145 149 129 106 95 86 78 72 68 65 67 63 58 54 51 52 49
194 207 230 233 242 257 239 153 156 205 296 149 181 175 175 186 42 146 164 163 171 166 154 152 155 158 158 158 148 137 119 104 86 76 74 71 69 67 67 62 58 52 50 48
246 228 229 235 240 247 137 144 218 133 122 173 172 172 171 149 143 148 157 157 154 150 149 149 151 158 161 151 150 139 124 102 95 85 80 75 70 65 59 54 49 46 42 39
242 233 244 225 259 113 186 35 197 142 170 177 178 170 168 161 154 155 151 152 154 154 150 147 147 151 143 137 136 134 122 113 101 96 83 73 66 64 54 51 48 42 36 36
241 239 240 266 215 251 193 244 187 170 179 166 173 173 180 168 163 158 156 154 154 152 150 151 149 145 138 135 138 131 124 114 108 98 85 74 65 64 63 53 47 48 43 38
282 174 242 247 230 70 246 230 206 174 170 180 188 189 188 183 169 163 158 156 156 155 154 156 157 154 145 141 139 137 129 122 118 104 90 79 69 70 60 62 66 52 49 50
207 225 219 257 214 211 251 204 189 179 182 186 187 170 167 173 164 160 156 156 154 154 156 156 158 153 144 146 147 145 139 139 131 111 100 96 84 78 77 69 50 50 49 48